Buffalo, NY

1:27 PM EST on December 14, 2019 (GMT -0500)
Buffalo Niagara International

Weather History for KBUF - October, 2019

Change the Weather History Date:

Sunday, October 6, 2019

  Actual Average Record
Temperature  
Mean Temperature 60 °F 54 °F  
Max Temperature 69 °F 63 °F 85 °F (1900)
Min Temperature 51 °F 46 °F 28 °F (1984)
Degree Days  
Heating Degree Days 5 11  
Month to date heating degree days 55 61  
Since 1 July heating degree days 100 223  
Cooling Degree Days 0 0  
Month to date cooling degree days 7 0  
Year to date cooling degree days 604 540  
Growing Degree Days 10 (Base 50)    
Moisture  
Dew Point 54 °F    
Average Humidity 78    
Maximum Humidity 93    
Minimum Humidity 63    
Precipitation  
Precipitation 0.02 in 0.13 in 2.55 in (1955)
Month to date precipitation 1.09 0.74  
Year to date precipitation 35.74 29.80  
Snow  
Snow 0.00 in 0.00 in 0.20 in (1991)
Month to date snowfall 0.0 0.1  
Since 1 July snowfall 0.0 0.1  
Since 1 September snowfall 0.0 0.1  
Snow Depth 0.00 in    
Sea Level Pressure  
Sea Level Pressure 30.04 in    
Wind  
Wind Speed 12 mph (SSW)    
Max Wind Speed 22 mph    
Max Gust Speed 27 mph    
Visibility 10 miles    
Events Rain    
T = Trace of Precipitation, MM = Missing Value Source: NWS Daily Summary

Daily Weather History Graph

Daily Weather History Graph

Search for Another Location

Airport or City:

Astronomy

Oct. 06, 2019 Rise Set
Actual Time 7:17 AM EDT 6:47 PM EDT
Civil Twilight 6:49 AM EDT 7:16 PM EDT
Nautical Twilight 6:16 AM EDT 7:48 PM EDT
Astronomical Twilight 5:43 AM EDT 8:21 PM EDT
Moon 3:36 PM EDT (10/6) 12:02 AM EDT (10/6)
Length of Visible Light 12h 26m
Length of Day
11h 30m
First Quarter, 59% of the Moon is Illuminated
Oct 6
First Quarter
Oct 13
Full
Oct 21
Last Quarter
Oct 27
New
Nov 4
First Quarter

Hourly Weather History & Observations

Time (EDT) Temp. Dew Point Humidity Pressure Visibility Wind Dir Wind Speed Gust Speed Precip Events Conditions
12:54 AM 51.1 °F 43.0 °F 74% 30.09 in 10.0 mi SSE 5.8 mph - N/A   Scattered Clouds
1:54 AM 52.0 °F 44.1 °F 74% 30.08 in 10.0 mi SSE 6.9 mph - N/A   Scattered Clouds
2:54 AM 53.1 °F 45.0 °F 74% 30.04 in 10.0 mi SSE 10.4 mph - N/A   Mostly Cloudy
3:54 AM 55.0 °F 46.9 °F 74% 30.01 in 10.0 mi South 11.5 mph - N/A   Mostly Cloudy
4:54 AM 57.0 °F 48.0 °F 72% 30.00 in 10.0 mi South 13.8 mph 23.0 mph N/A   Mostly Cloudy
5:54 AM 57.9 °F 48.0 °F 70% 30.01 in 10.0 mi SSW 18.4 mph 25.3 mph N/A   Overcast
6:54 AM 57.9 °F 48.9 °F 72% 30.04 in 10.0 mi SSW 15.0 mph - N/A   Overcast
7:54 AM 57.9 °F 50.0 °F 75% 30.06 in 10.0 mi SSW 12.7 mph - 0.00 in Rain Light Rain
8:54 AM 57.9 °F 52.0 °F 81% 30.06 in 10.0 mi South 12.7 mph - 0.00 in Rain Light Rain
9:54 AM 61.0 °F 53.1 °F 75% 30.05 in 10.0 mi South 17.3 mph 24.2 mph 0.00 in   Mostly Cloudy
10:54 AM 63.0 °F 54.0 °F 72% 30.05 in 10.0 mi South 12.7 mph - N/A   Mostly Cloudy
11:54 AM 66.0 °F 55.0 °F 68% 30.04 in 10.0 mi SSW 16.1 mph - N/A   Mostly Cloudy
12:54 PM 68.0 °F 55.9 °F 65% 30.03 in 10.0 mi SSW 18.4 mph - N/A   Mostly Cloudy
1:54 PM 66.9 °F 55.0 °F 66% 30.02 in 10.0 mi SW 17.3 mph 26.5 mph N/A   Mostly Cloudy
2:54 PM 66.0 °F 59.0 °F 78% 30.00 in 9.0 mi SSW 13.8 mph - 0.01 in Rain Light Rain
3:54 PM 66.0 °F 57.9 °F 75% 30.01 in 10.0 mi SW 11.5 mph - 0.00 in Rain Light Rain
4:54 PM 64.9 °F 59.0 °F 81% 30.03 in 10.0 mi SW 10.4 mph - 0.00 in   Overcast
5:31 PM 64.9 °F 60.1 °F 84% 30.03 in 10.0 mi West 13.8 mph 21.9 mph 0.00 in Rain Light Rain
5:54 PM 64.0 °F 60.1 °F 87% 30.04 in 10.0 mi WSW 12.7 mph 20.7 mph 0.00 in Rain Light Rain
6:23 PM 63.0 °F 59.0 °F 87% 30.04 in 10.0 mi SW 10.4 mph - 0.01 in   Overcast
6:54 PM 63.0 °F 59.0 °F 87% 30.04 in 10.0 mi SW 9.2 mph - 0.01 in   Mostly Cloudy
7:54 PM 63.0 °F 60.1 °F 90% 30.06 in 10.0 mi SW 10.4 mph - N/A   Overcast
8:54 PM 62.1 °F 59.0 °F 90% 30.07 in 10.0 mi SW 8.1 mph - N/A   Mostly Cloudy
9:54 PM 62.1 °F 59.0 °F 90% 30.07 in 10.0 mi WSW 9.2 mph - N/A   Mostly Cloudy
10:54 PM 62.1 °F 57.9 °F 86% 30.08 in 10.0 mi WSW 9.2 mph - N/A   Mostly Cloudy
11:54 PM 60.1 °F 55.0 °F 83% 30.09 in 10.0 mi West 5.8 mph - N/A   Mostly Cloudy